Airfield :
LOGIN :

Register | Disclaimer

   EN    FR    IT 

 










Legend :    VFR   Marginal VFR   IFR   Intensive IFR   Very Intensive IFR
Visi :
Ceiling :
>= 8 km
>= 3000ft
5 to 8 km
1000 to 3000 ft
1500m to 5 km
500 to 1000 ft
800 to 1500m
200 to 500 ft
< 800m
< 200 ft
Symbols :   Thunderstorms  Fog  Heavy snow  Heavy precipitations  Wind > 20 kt
SIGMETs :     Misc.  Thunderstorms  Icing  Turbulence  Mountain Waves  Volcanic Ashes






- Airport Elevation : 13 ft
- IATA code : LYX


EGMD - Lydd

CURRENT METAR :
  • 180350Z AUTO 32004KT 9999 NCD M02/M02 Q1039

EXPIRED METARs :
  • 180320Z AUTO 32004KT 9999 NCD M01/M01 Q1039
  • 180250Z AUTO 32005KT 9000 NCD M01/M01 Q1039
  • 180220Z AUTO 30003KT 7000 NCD M02/M02 Q1039
  • 180150Z AUTO 30005KT 8000 NCD M00/M00 Q1039

TAF TAF EGMD
Valid from the 18 at 03:00 until the 18 at 12:00 UTC


180202Z 1803/1812 30003KT CAVOK
TEMPO 1803/1812 4000 BR
PROB30
TEMPO 1811/1812 BKN010
ATIS : +44 1797 322 422



MET'MAP, your aeronautical weather chart ! - Copyright ORBIFLY December 2007 - Disclaimer

ORBIFLY MET'MAP TEAM :

Programming & Development : Alexandra Zaïnal
Concept & original design : Baudouin d'Aumeries
Assistance for programming : Marc-Olivier Méhu
Technical & hardware support : Manuel Goepfert

Contact : metmap@orbifly.com




SOURCES & CREDITS :

   NOAA